OHDEN EDLP-EDLP

Flight info

Callsign OHDEN
Flight time 0h 17m
Altitude
Route
Aircraft PC12

Departure

Time 2026-05-08 12:39
Airport Paderborn Lippstadt Airport (EDLP)

Arrival

Time 2026-05-08 12:57
Airport Paderborn Lippstadt Airport (EDLP)
Time Latitude Longitude Altitude Speed Heading
2026-05-08 12:32 51.60975 8.61701 699 ft 0 kts 120°
2026-05-08 12:36 51.60999 8.61728 696 ft 10 kts 310°
2026-05-08 12:36 51.61016 8.61633 700 ft 11 kts 303°
2026-05-08 12:36 51.61072 8.61558 699 ft 11 kts 328°
2026-05-08 12:37 51.61130 8.61468 705 ft 13 kts 272°
2026-05-08 12:37 51.61090 8.61339 706 ft 13 kts 238°
2026-05-08 12:37 51.61048 8.61237 706 ft 11 kts 237°
2026-05-08 12:37 51.61006 8.61129 704 ft 12 kts 244°
2026-05-08 12:38 51.61031 8.61018 708 ft 11 kts 337°
2026-05-08 12:38 51.61104 8.61051 707 ft 11 kts 25°
2026-05-08 12:38 51.61177 8.61106 703 ft 12 kts 29°
2026-05-08 12:38 51.61293 8.61344 702 ft 52 kts 59°
2026-05-08 12:39 51.61565 8.62091 720 ft 98 kts 63°
2026-05-08 12:39 51.61984 8.63085 996 ft 115 kts 55°
2026-05-08 12:39 51.62684 8.63478 1498 ft 125 kts 337°
2026-05-08 12:39 51.62983 8.62059 1623 ft 154 kts 258°
2026-05-08 12:40 51.62591 8.60350 1590 ft 172 kts 245°
2026-05-08 12:40 51.62109 8.58657 1573 ft 158 kts 246°
2026-05-08 12:40 51.61506 8.57546 1858 ft 108 kts 200°
2026-05-08 12:40 51.60821 8.57810 1611 ft 104 kts 135°
2026-05-08 12:41 51.60571 8.58846 1162 ft 101 kts 91°
2026-05-08 12:41 51.60738 8.59855 850 ft 89 kts 69°
2026-05-08 12:41 51.61025 8.60654 721 ft 74 kts 65°
2026-05-08 12:41 51.61259 8.61276 705 ft 65 kts 65°
2026-05-08 12:42 51.61520 8.61945 828 ft 72 kts 59°
2026-05-08 12:42 51.61880 8.62629 954 ft 92 kts 40°
2026-05-08 12:42 51.62500 8.62396 1220 ft 119 kts 306°
2026-05-08 12:42 51.62605 8.60878 1196 ft 157 kts 260°
2026-05-08 12:43 51.62167 8.59201 1281 ft 161 kts 242°
2026-05-08 12:43 51.61500 8.57922 1422 ft 138 kts 202°
2026-05-08 12:43 51.60747 8.58174 1333 ft 104 kts 135°
2026-05-08 12:43 51.60557 8.59185 1064 ft 94 kts 83°
2026-05-08 12:44 51.60813 8.60101 808 ft 86 kts 65°
2026-05-08 12:44 51.61095 8.60834 705 ft 69 kts 65°
2026-05-08 12:44 51.61297 8.61390 707 ft 65 kts 52°
2026-05-08 12:44 51.61598 8.62092 768 ft 89 kts 62°
2026-05-08 12:45 51.62091 8.62740 1096 ft 100 kts 11°
2026-05-08 12:45 51.62674 8.62017 1344 ft 127 kts 289°
2026-05-08 12:45 51.62500 8.60564 1358 ft 141 kts 241°
2026-05-08 12:45 51.61918 8.59282 1267 ft 141 kts 232°
2026-05-08 12:46 51.61291 8.58162 1372 ft 120 kts 206°
2026-05-08 12:46 51.60664 8.58346 1377 ft 94 kts 126°
2026-05-08 12:46 51.60562 8.59354 1005 ft 100 kts 78°
2026-05-08 12:46 51.60879 8.60291 766 ft 89 kts 63°
2026-05-08 12:47 51.61168 8.61049 707 ft 69 kts 61°
2026-05-08 12:47 51.61453 8.61684 793 ft 71 kts 59°
2026-05-08 12:47 51.61853 8.62212 908 ft 88 kts 23°
2026-05-08 12:47 51.62452 8.61792 1055 ft 115 kts 301°
2026-05-08 12:48 51.62351 8.60447 1072 ft 134 kts 241°
2026-05-08 12:48 51.61815 8.59226 1041 ft 125 kts 225°
2026-05-08 12:48 51.61163 8.58622 1023 ft 100 kts 185°
2026-05-08 12:48 51.60639 8.59003 947 ft 79 kts 115°
2026-05-08 12:49 51.60713 8.59839 812 ft 80 kts 67°
2026-05-08 12:49 51.60994 8.60575 727 ft 74 kts 63°
2026-05-08 12:49 51.61251 8.61212 701 ft 67 kts 61°
2026-05-08 12:49 51.61531 8.61904 842 ft 77 kts 61°
2026-05-08 12:50 51.61652 8.62714 994 ft 83 kts 120°
2026-05-08 12:50 51.61063 8.62694 1077 ft 107 kts 211°
2026-05-08 12:50 51.60535 8.61814 1118 ft 109 kts 231°
2026-05-08 12:50 51.60065 8.60897 1199 ft 104 kts 227°
2026-05-08 12:51 51.59495 8.60327 1276 ft 94 kts 179°
2026-05-08 12:51 51.59638 8.61259 1217 ft 105 kts 330°
2026-05-08 12:51 51.59651 8.60186 1210 ft 110 kts 219°
2026-05-08 12:52 51.59119 8.60425 1183 ft 94 kts 88°
2026-05-08 12:52 51.59649 8.59344 1191 ft 107 kts 274°
2026-05-08 12:52 51.59785 8.58256 1130 ft 95 kts 264°
2026-05-08 12:53 51.59768 8.57228 1087 ft 87 kts 310°
2026-05-08 12:53 51.60208 8.57273 1002 ft 76 kts 69°
2026-05-08 12:53 51.60359 8.58124 965 ft 81 kts 82°
2026-05-08 12:53 51.60494 8.59024 900 ft 86 kts 75°
2026-05-08 12:54 51.60738 8.59885 819 ft 81 kts 67°
2026-05-08 12:54 51.61005 8.60608 724 ft 67 kts 64°
2026-05-08 12:54 51.61192 8.61113 706 ft 60 kts 58°
2026-05-08 12:54 51.61455 8.61758 792 ft 81 kts 60°
2026-05-08 12:55 51.61895 8.62431 1078 ft 93 kts 24°
2026-05-08 12:55 51.62452 8.61889 1317 ft 116 kts 285°
2026-05-08 12:55 51.62306 8.60604 1280 ft 115 kts 245°
2026-05-08 12:55 51.61937 8.59528 1130 ft 107 kts 240°
2026-05-08 12:56 51.61483 8.58693 1040 ft 92 kts 202°
2026-05-08 12:56 51.60898 8.58660 1009 ft 81 kts 149°
2026-05-08 12:56 51.60665 8.59378 906 ft 78 kts 88°
2026-05-08 12:56 51.60851 8.60186 777 ft 75 kts 68°
2026-05-08 12:57 51.61101 8.60851 707 ft 62 kts 66°
2026-05-08 12:57 51.61266 8.61271 707 ft 41 kts 54°
2026-05-08 12:57 51.61367 8.61498 705 ft 29 kts 60°
2026-05-08 12:57 51.61437 8.61793 701 ft 23 kts 88°
2026-05-08 12:58 51.61436 8.61943 700 ft 10 kts 97°
2026-05-08 12:58 51.61419 8.61994 698 ft 0 kts 140°
2026-05-08 12:59 51.61383 8.62016 696 ft 13 kts 193°
2026-05-08 12:59 51.61316 8.61880 699 ft 17 kts 236°
2026-05-08 12:59 51.61233 8.61703 698 ft 16 kts 209°
2026-05-08 12:59 51.61144 8.61761 703 ft 16 kts 161°
2026-05-08 13:00 51.61089 8.61801 703 ft 8 kts 137°
2026-05-08 13:00 51.61054 8.61801 703 ft 1 kts 241°
2026-05-08 13:00 51.61053 8.61799 703 ft 0 kts 241°